Weather Roundup
Issued by NWS

Home | Current Version | Previous Version | Graphics & Text | Print | Product List | Glossary Off
Versions: 1 2 3 4 5 6 7 8 9 10 11 12 13 14 15 16 17 18 19 20 21 22 23 24 25 26 27 28 29 30 31 32 33 34 35 36 37 38 39 40 41 42 43 44 45 46 47 48 49 50

000
NZUS93 KARX 270859
HRRWXR

CURRENT HOURLY OBSERVATIONS ACROSS
MUCH OF THE UPPER MISSISSIPPI VALLEY
NATIONAL WEATHER SERVICE LA CROSSE WI
400 AM CDT SUN MAY 27 2018


...SOUTHEAST MINNESOTA...


CITY           SKY/WX    TMP DP  RH WIND       PRES   REMARKS
ROCHESTER      FAIR      66  62  87 S6        29.80S
ROCHESTER/MAYO FAIR      69  63  80 CALM      29.80S
WINONA         FAIR      66  64  94 CALM      29.78S
AUSTIN         FAIR      63  59  88 E3        29.79S
ALBERT LEA     FAIR      63  57  82 CALM      29.79S
DODGE CENTER   FAIR      66  57  72 CALM      29.80S
PRESTON        FAIR      67  63  86 S3        29.81S
OWATONNA       FAIR      63  59  88 CALM      29.79S
FARIBAULT      FAIR      63  63 100 CALM      29.79R
$$

...ELSEWHERE IN MINNESOTA...


CITY           SKY/WX    TMP DP  RH WIND       PRES   REMARKS
MINNEAPOLIS    FAIR      68  63  84 NW3       29.77S
INTNL FALLS    FAIR      51  51 100 CALM      29.78R
DULUTH         FAIR      56  53  90 W3        29.79S
RED WING       FAIR      61  57  88 CALM      29.77S
REDWOOD FALLS  CLEAR     65  57  75 S3        29.76S
MANKATO        FAIR      68  58  70 CALM      29.79R
WORTHINGTON    CLEAR     66  53  63 CALM      29.81F
FAIRMONT       CLEAR     66  57  72 W3        29.80S
$$

...SOUTHWEST WISCONSIN...


CITY           SKY/WX    TMP DP  RH WIND       PRES   REMARKS
LA CROSSE      FAIR      69  66  90 SE6       29.78R
PRAIRIE DU CHI FAIR      67  65  93 SE3       29.79S
BOSCOBEL       MOCLDY    66  64  93 CALM      29.81R FOG
LONE ROCK      FAIR      66  66 100 CALM      29.80S
PLATTEVILLE    FAIR      70  67  88 S6        29.83R
FORT MC COY    FAIR      58  57  97 CALM      29.80S
CAMP DOUGLAS   FAIR      64  63  97 CALM      29.79S
MAUSTON-NEW LI PTSUNNY   78  64  60 SW6       29.79S
VIROQUA        FAIR      71  64  81 CALM      29.82S
WIS DELLS      MOCLDY    72  62  68 CALM      29.81R
$$

...ELSEWHERE IN WISCONSIN...


CITY           SKY/WX    TMP DP  RH WIND       PRES   REMARKS
MILWAUKEE      FAIR      70  60  70 SW6       29.80S
MADISON        FAIR      65  63  93 CALM      29.80S
GREEN BAY      FAIR      63  58  83 SW3       29.78R
EAU CLAIRE     NOT AVBL
BLACK RVR FLS  FAIR      60  60 100 CALM      29.79R
MEDFORD        FAIR      58  56  93 CALM      29.82R
WAUSAU         NOT AVBL
WIS RAPIDS     FAIR      64  61  90 CALM      29.81R
MARSHFIELD     FAIR      67  62  84 CALM      29.80S
RICE LAKE      FAIR      59  58  95 CALM      29.81S
$$

...NORTHEAST IOWA...


CITY           SKY/WX    TMP DP  RH WIND       PRES   REMARKS
WATERLOO       FAIR      65  65 100 E3        29.78R
DUBUQUE        FAIR      68  64  87 SW3       29.82S
DECORAH        FAIR      72  66  83 CALM      29.79S
MASON CITY     CLEAR     64  58  80 CALM      29.81R
CHARLES CITY   FAIR      68  64  88 S5        29.80S
OELWEIN        FAIR      70  66  88 SE6       29.80S
$$

...ELSEWHERE IN IOWA...


CITY           SKY/WX    TMP DP  RH WIND       PRES   REMARKS
DES MOINES     CLEAR     74  68  81 CALM      29.78R
IOWA CITY      FAIR      71  68  90 CALM      29.81S
FORT DODGE     CLEAR     63  60  90 CALM      29.80R
MARSHALLTOWN   CLEAR     70  68  93 S3        29.78S
CEDAR RAPIDS   FAIR      71  68  90 S5        29.79S
$$

...NORTHERN ILLINOIS...


CITY           SKY/WX    TMP DP  RH WIND       PRES   REMARKS
CHICAGO-OHARE  FAIR      73  63  70 SW7       29.81S
CHICAGO-MIDWAY FAIR      74  64  71 SW5       29.81S
MOLINE         FAIR      67  65  93 CALM      29.81R
ROCKFORD       FAIR      64  61  90 CALM      29.83R
PEORIA         FAIR      71  69  93 CALM      29.82S
$$

NOTE: "FAIR" INDICATES FEW OR NO CLOUDS BELOW 12,000 FEET WITH NO
SIGNIFICANT WEATHER AND/OR OBSTRUCTIONS TO VISIBILITY. WIND
SPEEDS ARE IN MILES-PER-HOUR.




USA.gov is the U.S. government's official web portal to all federal, state and local government web resources and services.